H1 CPF 2 NER 2021 10 20 9 293 01 glonass142 H2 2001801 9142 45358 2021 10 20 0 0 0 2021 10 23 23 45 0 900 1 1 0 0 0 1 H9 10 0 59507 0.00000 0 -14936512.178 -5199159.597 -19986681.750 10 0 59507 900.00000 0 -12492256.036 -5962018.583 -21401530.989 10 0 59507 1800.00000 0 -9974003.527 -6960467.429 -22399759.204 10 0 59507 2700.00000 0 -7450349.971 -8184578.428 -22961999.164 10 0 59507 3600.00000 0 -4987849.321 -9612125.891 -23077388.301 10 0 59507 4500.00000 0 -2648433.479 -11209365.252 -22743774.414 10 0 59507 5400.00000 0 -487039.113 -12932312.444 -21967750.383 10 0 59507 6300.00000 0 1450459.707 -14728469.929 -20764517.764 10 0 59507 7200.00000 0 3128927.848 -16538926.910 -19157582.508 10 0 59507 8100.00000 0 4525185.920 -18300745.624 -17178289.261 10 0 59507 9000.00000 0 5628718.533 -19949533.625 -14865203.673 10 0 59507 9900.00000 0 6441846.284 -21422094.149 -12263355.233 10 0 59507 10800.00000 0 6979356.465 -22659043.519 -9423355.655 10 0 59507 11700.00000 0 7267610.115 -23607285.956 -6400410.264 10 0 59507 12600.00000 0 7343164.914 -24222242.172 -3253242.020 10 0 59507 13500.00000 0 7250973.747 -24469738.660 -42949.308 10 0 59507 14400.00000 0 7042236.363 -24327478.863 3168180.051 10 0 59507 15300.00000 0 6771995.823 -23786034.922 6317875.336 10 0 59507 16200.00000 0 6496582.028 -22849319.140 9345086.586 10 0 59507 17100.00000 0 6271010.547 -21534515.661 12191162.210 10 0 59507 18000.00000 0 6146446.609 -19871475.595 14800978.001 10 0 59507 18900.00000 0 6167841.098 -17901601.132 17123996.315 10 0 59507 19800.00000 0 6371837.909 -15676265.040 19115235.719 10 0 59507 20700.00000 0 6785040.442 -13254831.146 20736133.189 10 0 59507 21600.00000 0 7422709.996 -10702357.422 21955283.210 10 0 59507 22500.00000 0 8287950.847 -8087076.177 22749040.412 10 0 59507 23400.00000 0 9371416.636 -5477754.875 23101974.852 10 0 59507 24300.00000 0 10651551.211 -2941045.696 23007171.663 10 0 59507 25200.00000 0 12095355.082 -538932.393 22466369.441 10 0 59507 26100.00000 0 13659646.907 1673620.916 21489934.449 10 0 59507 27000.00000 0 15292768.990 3650722.640 20096670.565 10 0 59507 27900.00000 0 16936667.236 5357223.937 18313467.595 10 0 59507 28800.00000 0 18529260.119 6769937.403 16174793.633 10 0 59507 29700.00000 0 20006998.872 7878353.851 13722039.887 10 0 59507 30600.00000 0 21307512.523 8684827.441 11002729.333 10 0 59507 31500.00000 0 22372227.215 9204221.371 8069603.394 10 0 59507 32400.00000 0 23148849.670 9463029.034 4979603.477 10 0 59507 33300.00000 0 23593609.753 9498007.590 1792766.599 10 0 59507 34200.00000 0 23673166.643 9354381.725 -1428943.447 10 0 59507 35100.00000 0 23366096.955 9083693.839 -4622846.328 10 0 59507 36000.00000 0 22663900.573 8741392.222 -7726772.583 10 0 59507 36900.00000 0 21571480.290 8384260.218 -10680283.263 10 0 59507 37800.00000 0 20107073.672 8067796.403 -13425856.930 10 0 59507 38700.00000 0 18301638.897 7843658.053 -15910019.794 10 0 59507 39600.00000 0 16197719.649 7757277.486 -18084395.842 10 0 59507 40500.00000 0 13847836.309 7845753.510 -19906655.733 10 0 59507 41400.00000 0 11312470.761 8136108.301 -21341345.422 10 0 59507 42300.00000 0 8657729.379 8643984.320 -22360578.076 10 0 59507 43200.00000 0 5952782.088 9372836.999 -22944575.889 10 0 59507 44100.00000 0 3267184.645 10313657.690 -23082051.531 10 0 59507 45000.00000 0 668195.976 11445238.776 -22770422.220 10 0 59507 45900.00000 0 -1781797.815 12734969.816 -22015852.863 10 0 59507 46800.00000 0 -4027645.929 14140131.146 -20833127.986 10 0 59507 47700.00000 0 -6023484.197 15609630.347 -19245355.536 10 0 59507 48600.00000 0 -7734390.977 17086108.375 -17283508.846 10 0 59507 49500.00000 0 -9137580.137 18508326.659 -14985816.116 10 0 59507 50400.00000 0 -10223083.054 19813734.662 -12397009.687 10 0 59507 51300.00000 0 -10993893.193 20941109.889 -9567450.123 10 0 59507 52200.00000 0 -11465569.345 21833159.395 -6552142.354 10 0 59507 53100.00000 0 -11665316.221 22438973.489 -3409663.467 10 0 59507 54000.00000 0 -11630583.054 22716228.653 -201023.193 10 0 59507 54900.00000 0 -11407240.878 22633047.331 3011520.515 10 0 59507 55800.00000 0 -11047416.699 22169436.849 6165667.586 10 0 59507 56700.00000 0 -10607076.870 21318247.313 9200280.218 10 0 59507 57600.00000 0 -10143462.133 20085608.532 12056562.318 10 0 59507 58500.00000 0 -9712482.805 18490827.976 14679191.422 10 0 59507 59400.00000 0 -9366183.770 16565753.906 17017381.777 10 0 59507 60300.00000 0 -9150385.786 14353630.099 19025858.792 10 0 59507 61200.00000 0 -9102601.967 11907489.590 20665726.862 10 0 59507 62100.00000 0 -9250316.576 9288153.376 21905214.786 10 0 59507 63000.00000 0 -9609698.170 6561916.226 22720285.312 10 0 59507 63900.00000 0 -10184801.108 3798014.492 23095097.781 10 0 59507 64800.00000 0 -10967289.221 1065979.433 23022315.480 10 0 59507 65700.00000 0 -11936693.957 -1567015.721 22503251.944 10 0 59507 66600.00000 0 -13061197.261 -4038706.397 21547853.179 10 0 59507 67500.00000 0 -14298907.775 -6294080.584 20174515.555 10 0 59507 68400.00000 0 -15599578.415 -8287419.815 18409741.933 10 0 59507 69300.00000 0 -16906694.911 -9983953.178 16287641.498 10 0 59507 70200.00000 0 -18159849.043 -11361056.001 13849281.643 10 0 59507 71100.00000 0 -19297298.082 -12408943.499 11141903.065 10 0 59507 72000.00000 0 -20258603.441 -13130830.348 8218012.175 10 0 59507 72900.00000 0 -20987237.666 -13542549.467 5134367.496 10 0 59507 73800.00000 0 -21433049.544 -13671645.952 1950879.139 10 0 59507 74700.00000 0 -21554482.497 -13555984.292 -1270557.256 10 0 59507 75600.00000 0 -21320451.376 -13241927.856 -4467269.187 10 0 59507 76500.00000 0 -20711796.898 -12782167.990 -7577034.367 10 0 59507 77400.00000 0 -19722254.673 -12233295.248 -10539301.280 10 0 59507 78300.00000 0 -18358896.321 -11653216.500 -13296378.356 10 0 59507 79200.00000 0 -16642022.640 -11098528.357 -15794567.458 10 0 59507 80100.00000 0 -14604512.142 -10621959.342 -17985218.501 10 0 59507 81000.00000 0 -12290651.535 -10269990.160 -19825683.826 10 0 59507 81900.00000 0 -9754496.650 -10080753.795 -21280153.213 10 0 59507 82800.00000 0 -7057832.321 -10082304.984 -22320352.933 10 0 59507 83700.00000 0 -4267816.497 -10291332.702 -22926095.285 10 0 59507 84600.00000 0 -1454406.976 -10712370.304 -23085668.202 10 0 59507 85500.00000 0 1312321.770 -11337536.610 -22796057.744 10 0 59508 0.00000 0 3964859.813 -12146818.592 -22062999.830 10 0 59508 900.00000 0 6440831.088 -13108883.873 -20900860.275 10 0 59508 1800.00000 0 8685340.852 -14182387.245 -19332347.152 10 0 59508 2700.00000 0 10653009.239 -15317717.173 -17388060.282 10 0 59508 3600.00000 0 12309603.839 -16459107.264 -15105887.942 10 0 59508 4500.00000 0 13633206.171 -17547023.780 -12530262.660 10 0 59508 5400.00000 0 14614864.922 -18520728.309 -9711290.987 10 0 59508 6300.00000 0 15258710.640 -19320907.452 -6703774.460 10 0 59508 7200.00000 0 15581529.065 -19892258.667 -3566141.188 10 0 59508 8100.00000 0 15611813.030 -20185923.384 -359309.112 10 0 59508 9000.00000 0 15388334.592 -20161665.019 2854496.780 10 0 59508 9900.00000 0 14958299.066 -19789700.438 6012950.049 10 0 59508 10800.00000 0 14375159.882 -19052108.007 9054827.821 10 0 59508 11700.00000 0 13696187.147 -17943753.277 11921192.005 10 0 59508 12600.00000 0 12979892.674 -16472693.426 14556524.063 10 0 59508 13500.00000 0 12283419.999 -14660043.453 16909791.956 10 0 59508 14400.00000 0 11660009.035 -12539309.466 18935429.387 10 0 59508 15300.00000 0 11156641.389 -10155216.267 20594209.240 10 0 59508 16200.00000 0 10811964.738 -7562077.268 21853995.331 10 0 59508 17100.00000 0 10654582.806 -4821773.341 22690358.876 10 0 59508 18000.00000 0 10701782.245 -2001423.231 23087048.525 10 0 59508 18900.00000 0 10958749.669 829159.401 23036305.447 10 0 59508 19800.00000 0 11418311.823 3600118.526 22539017.590 10 0 59508 20700.00000 0 12061210.352 6244209.486 21604709.929 10 0 59508 21600.00000 0 12856900.526 8699345.393 20251370.369 10 0 59508 22500.00000 0 13764841.614 10910931.836 18505113.672 10 0 59508 23400.00000 0 14736226.048 12833893.752 16399688.802 10 0 59508 24300.00000 0 15716076.035 14434310.810 13975837.829 10 0 59508 25200.00000 0 16645620.577 15690593.427 11280517.483 10 0 59508 26100.00000 0 17464853.602 16594150.289 8365997.276 10 0 59508 27000.00000 0 18115165.744 17149519.300 5288850.739 10 0 59508 27900.00000 0 18541938.588 17373956.284 2108858.787 10 0 59508 28800.00000 0 18696991.133 17296498.531 -1112153.550 10 0 59508 29700.00000 0 18540774.030 16956542.671 -4311524.164 10 0 59508 30600.00000 0 18044217.332 16401997.097 -7426980.541 10 0 59508 31500.00000 0 17190152.026 15687087.442 -10397861.154 10 0 59508 32400.00000 0 15974243.518 14869908.659 -13166306.732 10 0 59508 33300.00000 0 14405395.976 14009828.125 -15678397.065 10 0 59508 34200.00000 0 12505609.033 13164850.677 -17885210.061 10 0 59508 35100.00000 0 10309291.650 12389058.034 -19743781.614 10 0 59508 36000.00000 0 7862061.047 11730231.769 -21217946.999 10 0 59508 36900.00000 0 5219076.531 11227760.971 -22279047.062 10 0 59508 37800.00000 0 2442977.622 10910923.373 -22906485.470 10 0 59508 38700.00000 0 -398487.547 10797612.613 -23088126.450 10 0 59508 39600.00000 0 -3235044.576 10893565.122 -22820525.651 10 0 59508 40500.00000 0 -5996578.396 11192118.799 -22108990.223 10 0 59508 41400.00000 0 -8615810.500 11674513.009 -20967467.532 10 0 59508 42300.00000 0 -11030856.689 12310716.503 -19418265.241 10 0 59508 43200.00000 0 -13187559.566 13060747.560 -17491608.780 10 0 59508 44100.00000 0 -15041499.600 13876429.955 -15225045.213 10 0 59508 45000.00000 0 -16559602.113 14703509.988 -12662705.609 10 0 59508 45900.00000 0 -17721274.684 15484044.723 -9854440.566 10 0 59508 46800.00000 0 -18519029.185 16158960.259 -6854846.048 10 0 59508 47700.00000 0 -18958564.218 16670671.786 -3722198.841 10 0 59508 48600.00000 0 -19058306.384 16965654.716 -517322.603 10 0 59508 49500.00000 0 -18848431.527 16996858.415 2697593.241 10 0 59508 50400.00000 0 -18369408.658 16725860.823 5860198.578 10 0 59508 51300.00000 0 -17670129.125 16124673.273 8909188.234 10 0 59508 52200.00000 0 -16805700.745 15177119.673 11785484.935 10 0 59508 53100.00000 0 -15835000.232 13879732.020 14433376.880 10 0 59508 54000.00000 0 -14818087.103 12242124.586 16801588.495 10 0 59508 54900.00000 0 -13813587.588 10286830.698 18844264.413 10 0 59508 55800.00000 0 -12876157.994 8048608.414 20521848.465 10 0 59508 56700.00000 0 -12054133.249 5573243.132 21801841.700 10 0 59508 57600.00000 0 -11387458.445 2915895.724 22659425.713 10 0 59508 58500.00000 0 -10905989.343 139063.489 23077940.027 10 0 59508 59400.00000 0 -10628232.473 -2689763.065 23049204.875 10 0 59508 60300.00000 0 -10560577.251 -5500652.221 22573683.372 10 0 59508 61200.00000 0 -10697052.330 -8223887.671 21660479.791 10 0 59508 62100.00000 0 -11019616.746 -10792621.246 20327173.414 10 0 59508 63000.00000 0 -11498974.350 -13145413.122 18599490.293 10 0 59508 63900.00000 0 -12095878.260 -15228554.991 16510818.070 10 0 59508 64800.00000 0 -12762871.555 -16998080.344 14101571.960 10 0 59508 65700.00000 0 -13446391.954 -18421378.456 11418422.769 10 0 59508 66600.00000 0 -14089152.602 -19478344.669 8513400.777 10 0 59508 67500.00000 0 -14632698.981 -20162018.656 5442891.891 10 0 59508 68400.00000 0 -15020033.983 -20478683.563 2266544.929 10 0 59508 69300.00000 0 -15198199.721 -20447421.456 -953888.808 10 0 59508 70200.00000 0 -15120705.936 -20099143.550 -4155760.882 10 0 59508 71100.00000 0 -14749700.892 -19475136.034 -7276751.955 10 0 59508 72000.00000 0 -14057791.321 -18625183.040 -10256093.961 10 0 59508 72900.00000 0 -13029432.638 -17605346.521 -13035763.408 10 0 59508 73800.00000 0 -11661828.864 -16475497.507 -15561621.402 10 0 59508 74700.00000 0 -9965302.618 -15296703.950 -17784477.040 10 0 59508 75600.00000 0 -7963118.105 -14128586.388 -19661052.648 10 0 59508 76500.00000 0 -5690763.289 -13026753.936 -21154831.454 10 0 59508 77400.00000 0 -3194720.582 -12040429.472 -22236770.798 10 0 59508 78300.00000 0 -530776.895 -11210364.574 -22885867.062 10 0 59508 79200.00000 0 2238056.641 -10567132.124 -23089561.499 10 0 59508 80100.00000 0 5043928.563 -10129868.287 -22843979.488 10 0 59508 81000.00000 0 7816735.318 -9905516.193 -22153999.108 10 0 59508 81900.00000 0 10486806.195 -9888602.341 -21033148.266 10 0 59508 82800.00000 0 12987573.312 -10061554.066 -19503332.968 10 0 59508 83700.00000 0 15258115.960 -10395543.560 -17594402.566 10 0 59508 84600.00000 0 17245474.004 -10851821.698 -15343560.864 10 0 59508 85500.00000 0 18906634.763 -11383484.346 -12794635.060 10 0 59509 0.00000 0 20210111.611 -11937595.600 -9997217.309 10 0 59509 900.00000 0 21137050.401 -12457577.870 -7005694.427 10 0 59509 1800.00000 0 21681817.312 -12885766.496 -3878188.790 10 0 59509 2700.00000 0 21852047.558 -13166021.646 -675426.269 10 0 59509 3600.00000 0 21668152.777 -13246286.166 2540442.852 10 0 59509 4500.00000 0 21162310.012 -13080981.622 5707048.285 10 0 59509 5400.00000 0 20376976.255 -12633141.466 8763005.876 10 0 59509 6300.00000 0 19362991.792 -11876191.387 11649102.198 10 0 59509 7200.00000 0 18177352.727 -10795301.896 14309434.841 10 0 59509 8100.00000 0 16880746.758 -9388256.196 16692486.933 10 0 59509 9000.00000 0 15534955.447 -7665796.574 18752115.829 10 0 59509 9900.00000 0 14200231.634 -5651434.312 20448437.654 10 0 59509 10800.00000 0 12932761.123 -3380730.111 21748591.613 10 0 59509 11700.00000 0 11782314.053 -900073.852 22627370.200 10 0 59509 12600.00000 0 10790183.334 1734986.928 23067703.956 10 0 59509 13500.00000 0 9987495.463 4461802.089 23060991.971 10 0 59509 14400.00000 0 9393963.663 7212973.981 22607271.998 10 0 59509 15300.00000 0 9017135.065 9918916.642 21715226.766 10 0 59509 16200.00000 0 8852163.303 12510514.689 20402025.846 10 0 59509 17100.00000 0 8882116.235 14921773.104 18693005.226 10 0 59509 18000.00000 0 9078806.385 17092348.991 16621189.673 10 0 59509 18900.00000 0 9404109.887 18969860.829 14226665.768 10 0 59509 19800.00000 0 9811719.185 20511879.493 11555816.429 10 0 59509 20700.00000 0 10249256.344 21687517.874 8660430.547 10 0 59509 21600.00000 0 10660658.239 22478552.387 5596704.055 10 0 59509 22500.00000 0 10988732.970 22880028.885 2424151.167 10 0 59509 23400.00000 0 11177779.086 22900326.905 -795553.166 10 0 59509 24300.00000 0 11176156.012 22560679.073 -3999776.878 10 0 59509 25200.00000 0 10938695.660 21894165.492 -7126156.476 10 0 59509 26100.00000 0 10428851.609 20944225.408 -10113819.951 10 0 59509 27000.00000 0 9620493.165 19762749.099 -12904582.026 10 0 59509 27900.00000 0 8499266.536 18407830.916 -15444087.360 10 0 59509 28800.00000 0 7063463.867 16941278.977 -17682878.256 10 0 59509 29700.00000 0 5324361.804 15425987.313 -19577365.266 10 0 59509 30600.00000 0 3306013.865 13923282.027 -21090681.128 10 0 59509 31500.00000 0 1044504.290 12490353.970 -22193401.034 10 0 59509 32400.00000 0 -1413306.235 11177886.410 -22864115.187 10 0 59509 33300.00000 0 -4011491.019 10027977.610 -23089842.717 10 0 59509 34200.00000 0 -6687152.749 9072445.450 -22866279.271 10 0 59509 35100.00000 0 -9372816.603 8331584.689 -22197874.022 10 0 59509 36000.00000 0 -11999021.384 7813428.120 -21097735.175 10 0 59509 36900.00000 0 -14497000.845 7513541.470 -19587366.394 10 0 59509 37800.00000 0 -16801343.695 7415359.204 -17696239.838 10 0 59509 38700.00000 0 -18852521.922 7491045.583 -15461214.561 10 0 59509 39600.00000 0 -20599182.537 7702843.233 -12925812.075 10 0 59509 40500.00000 0 -22000107.994 8004850.987 -10139363.523 10 0 59509 41400.00000 0 -23025764.479 8345154.749 -7156045.364 10 0 59509 42300.00000 0 -23659374.522 8668220.477 -4033822.740 10 0 59509 43200.00000 0 -23897470.464 8917447.428 -833321.314 10 0 59509 44100.00000 0 -23749907.018 9037773.296 2383350.262 10 0 59509 45000.00000 0 -23239333.843 8978220.888 5553804.099 10 0 59509 45900.00000 0 -22400151.587 8694278.698 8616579.699 10 0 59509 46800.00000 0 -21276996.212 8150014.877 11512330.133 10 0 59509 47700.00000 0 -19922816.121 7319835.546 14184965.054 10 0 59509 48600.00000 0 -18396622.935 6189813.328 16582728.898 10 0 59509 49500.00000 0 -16761010.386 4758530.021 18659194.211 10 0 59509 50400.00000 0 -15079545.017 3037397.726 20374151.671 10 0 59509 51300.00000 0 -13414137.052 1050444.167 21694380.605 10 0 59509 52200.00000 0 -11822500.444 -1166429.951 22594286.053 10 0 59509 53100.00000 0 -10355807.226 -3566691.897 23056390.841 10 0 59509 54000.00000 0 -9056632.957 -6094866.224 23071673.796 10 0 59509 54900.00000 0 -7957278.039 -8688604.069 22639747.804 10 0 59509 55800.00000 0 -7078534.222 -11281048.300 21768874.164 10 0 59509 56700.00000 0 -6428947.255 -13803398.180 20475812.463 10 0 59509 57600.00000 0 -6004606.268 -16187568.677 18785507.996 10 0 59509 58500.00000 0 -5789468.787 -18368835.163 16730621.647 10 0 59509 59400.00000 0 -5756208.020 -20288354.441 14350910.029 10 0 59509 60300.00000 0 -5867547.249 -21895457.569 11692466.502 10 0 59509 61200.00000 0 -6078025.645 -23149618.788 8806836.615 10 0 59509 62100.00000 0 -6336121.397 -24022017.929 5750024.117 10 0 59509 63000.00000 0 -6586642.617 -24496630.248 2581406.189 10 0 59509 63900.00000 0 -6773284.699 -24570797.131 -637421.196 10 0 59509 64800.00000 0 -6841245.285 -24255252.897 -3843845.134 10 0 59509 65700.00000 0 -6739785.073 -23573605.881 -6975460.931 10 0 59509 66600.00000 0 -6424624.615 -22561295.140 -9971295.707 10 0 59509 67500.00000 0 -5860073.984 -21264066.602 -12773005.560 10 0 59509 68400.00000 0 -5020803.361 -19736032.959 -15326021.864 10 0 59509 69300.00000 0 -3893177.888 -18037399.495 -17580623.205 10 0 59509 70200.00000 0 -2476098.681 -16231952.218 -19492911.229 10 0 59509 71100.00000 0 -781312.994 -14384414.690 -21025670.749 10 0 59509 72000.00000 0 1166820.786 -12557785.383 -22149096.954 10 0 59509 72900.00000 0 3332104.444 -10810767.920 -22841375.538 10 0 59509 73800.00000 0 5667775.975 -9195402.248 -23089104.662 10 0 59509 74700.00000 0 8118237.331 -7754996.044 -22887550.876 10 0 59509 75600.00000 0 10621161.957 -6522442.519 -22240734.594 10 0 59509 76500.00000 0 13109894.284 -5518994.216 -21161344.012 10 0 59509 77400.00000 0 15516041.051 -4753542.975 -19670479.718 10 0 59509 78300.00000 0 17772146.518 -4222434.686 -17797235.530 10 0 59509 79200.00000 0 19814340.184 -3909824.870 -15578124.189 10 0 59509 80100.00000 0 21584846.795 -3788558.325 -13056359.539 10 0 59509 81000.00000 0 23034254.393 -3821534.071 -10281009.556 10 0 59509 81900.00000 0 24123446.385 -3963496.406 -7306037.020 10 0 59509 82800.00000 0 24825117.655 -4163175.189 -4189246.912 10 0 59509 83700.00000 0 25124812.391 -4365683.812 -991161.240 10 0 59509 84600.00000 0 25021441.269 -4515072.773 2226156.560 10 0 59509 85500.00000 0 24527257.551 -4556930.394 5400304.607 10 0 59510 0.00000 0 23667294.378 -4440920.535 8469749.275 10 0 59510 900.00000 0 22478287.254 -4123149.971 11375013.973 10 0 59510 1800.00000 0 21007128.866 -3568265.729 14059823.074 10 0 59510 2700.00000 0 19308919.834 -2751193.813 16472184.894 10 0 59510 3600.00000 0 17444698.289 -1658446.167 18565389.335 10 0 59510 4500.00000 0 15478942.493 -288940.699 20298903.375 10 0 59510 5400.00000 0 13476950.337 1345700.587 21639147.816 10 0 59510 6300.00000 0 11502204.151 3221388.683 22560141.178 10 0 59510 7200.00000 0 9613829.626 5302331.218 23043999.128 10 0 59510 8100.00000 0 7864253.571 7542292.310 23081280.395 10 0 59510 9000.00000 0 6297156.865 9886297.981 22671172.778 10 0 59510 9900.00000 0 4945806.916 12272717.968 21821515.543 10 0 59510 10800.00000 0 3831838.238 14635639.308 20548657.332 10 0 59510 11700.00000 0 2964531.449 16907434.728 18877151.440 10 0 59510 12600.00000 0 2340620.546 19021420.398 16839293.266 10 0 59510 13500.00000 0 1944636.449 20914493.473 14474507.569 10 0 59510 14400.00000 0 1749772.550 22529640.093 11828596.034 10 0 59510 15300.00000 0 1719236.143 23818209.200 8952858.527 10 0 59510 16200.00000 0 1808029.040 24741856.784 5903104.092 10 0 59510 17100.00000 0 1965082.319 25274078.441 2738570.190 10 0 59510 18000.00000 0 2135654.832 25401264.931 -479228.985 10 0 59510 18900.00000 0 2263893.495 25123235.403 -3687702.544 10 0 59510 19800.00000 0 2295446.071 24453224.810 -6824407.444 10 0 59510 20700.00000 0 2180014.571 23417325.195 -9828272.689 10 0 59510 21600.00000 0 1873739.616 22053403.832 -12640798.341 10 0 59510 22500.00000 0 1341313.103 20409543.469 -15207204.875 10 0 59510 23400.00000 0 557728.066 18542070.426 -17477509.306 10 0 59510 24300.00000 0 -490409.972 16513253.836 -19407506.269 10 0 59510 25200.00000 0 -1804067.043 14388773.185 -20959634.296 10 0 59510 26100.00000 0 -3371495.925 12235061.127 -22103709.958 10 0 59510 27000.00000 0 -5168495.516 10116633.486 -22817515.559 10 0 59510 27900.00000 0 -7159204.372 8093518.606 -23087229.105 10 0 59510 28800.00000 0 -9297395.590 6218893.725 -22907688.524 10 0 59510 29700.00000 0 -11528219.160 4537026.870 -22282485.553 10 0 59510 30600.00000 0 -13790319.093 3081609.566 -21223888.017 10 0 59510 31500.00000 0 -16018236.765 1874548.977 -19752592.616 10 0 59510 32400.00000 0 -18145000.160 925268.450 -17897313.583 10 0 59510 33300.00000 0 -20104790.845 230543.967 -15694215.704 10 0 59510 34200.00000 0 -21835577.350 -225118.604 -13186203.186 10 0 59510 35100.00000 0 -23281605.126 -468583.337 -10422078.626 10 0 59510 36000.00000 0 -24395639.384 -536700.981 -7455588.737 10 0 59510 36900.00000 0 -25140867.477 -474502.596 -4344375.823 10 0 59510 37800.00000 0 -25492381.882 -333047.768 -1148855.656 10 0 59510 38700.00000 0 -25438182.553 -167019.444 2068956.210 10 0 59510 39600.00000 0 -24979657.534 -32167.797 5246646.622 10 0 59510 40500.00000 0 -24131522.550 17288.406 8322612.120 10 0 59510 41400.00000 0 -22921223.068 -68807.115 11237248.104 10 0 59510 42300.00000 0 -21387824.358 -334191.444 13934096.955 10 0 59510 43200.00000 0 -19580436.481 -814099.471 16360933.461 10 0 59510 44100.00000 0 -17556240.179 -1533542.328 18470767.275 10 0 59510 45000.00000 0 -15378195.935 -2506019.664 20222743.797 10 0 59510 45900.00000 0 -13112531.218 -3732720.097 21582927.057 10 0 59510 46800.00000 0 -10826109.655 -5202243.982 22524950.423 10 0 59510 47700.00000 0 -8583790.624 -6890860.977 23030523.337 10 0 59510 48600.00000 0 -6445887.872 -8763292.927 23089784.949 10 0 59510 49500.00000 0 -4465831.477 -10773991.023 22701498.086 10 0 59510 50400.00000 0 -2688129.261 -12868855.702 21873079.747 10 0 59510 51300.00000 0 -1146711.336 -14987329.526 20620467.052 10 0 59510 52200.00000 0 136274.095 -17064777.672 18967820.422 10 0 59510 53100.00000 0 1151163.992 -19035058.344 16947068.603 10 0 59510 54000.00000 0 1900953.775 -20833177.196 14597303.059 10 0 59510 54900.00000 0 2400933.466 -22397915.738 11964032.093 10 0 59510 55800.00000 0 2677801.881 -23674324.104 9098307.945 10 0 59510 56700.00000 0 2768296.035 -24615973.649 6055742.788 10 0 59510 57600.00000 0 2717393.488 -25186874.267 2895432.018 10 0 59510 58500.00000 0 2576163.623 -25362974.925 -321194.442 10 0 59510 59400.00000 0 2399359.128 -25133183.125 -3531570.337 10 0 59510 60300.00000 0 2242850.346 -24499859.123 -6673216.983 10 0 59510 61200.00000 0 2161012.146 -23478762.904 -9684968.056 10 0 59510 62100.00000 0 2204175.384 -22098455.183 -12508170.421 10 0 59510 63000.00000 0 2416252.382 -20399176.951 -15087836.478 10 0 59510 63900.00000 0 2832638.585 -18431254.382 -17373724.410 10 0 59510 64800.00000 0 3478480.748 -16253096.162 -19321324.414 10 0 59510 65700.00000 0 4367386.341 -13928867.516 -20892731.042 10 0 59510 66600.00000 0 5500629.913 -11525938.960 -22057384.201 10 0 59510 67500.00000 0 6866890.924 -9112217.040 -22792664.343 10 0 59510 68400.00000 0 8442534.896 -6753469.053 -23084330.406 10 0 59510 69300.00000 0 10192426.591 -4510753.734 -22926792.331 10 0 59510 70200.00000 0 12071241.383 -2438064.990 -22323213.372 10 0 59510 71100.00000 0 14025220.027 -580286.455 -21285440.776 10 0 59510 72000.00000 0 15994293.259 1028458.672 -19833766.761 10 0 59510 72900.00000 0 17914487.198 2365995.000 -17996525.011 10 0 59510 73800.00000 0 19720508.810 3422771.619 -15809531.010 10 0 59510 74700.00000 0 21348403.092 4202001.705 -13315377.607 10 0 59510 75600.00000 0 22738170.787 4719261.341 -10562599.897 10 0 59510 76500.00000 0 23836237.149 5001566.553 -7604726.035 10 0 59510 77400.00000 0 24597668.581 5085969.375 -4499232.821 10 0 59510 78300.00000 0 24988044.689 5017733.877 -1306426.675 10 0 59510 79200.00000 0 24984907.812 4848170.603 1911728.007 10 0 59510 80100.00000 0 24578729.843 4632221.878 5092810.124 10 0 59510 81000.00000 0 23773356.607 4425900.833 8175149.402 10 0 59510 81900.00000 0 22585911.698 4283692.604 11099016.907 10 0 59510 82800.00000 0 21046164.194 4256027.542 13807775.636 10 0 59510 83700.00000 0 19195387.179 4386932.995 16248969.467 10 0 59510 84600.00000 0 17084754.673 4711962.422 18375330.104 10 0 59510 85500.00000 0 14773343.702 5256488.848 20145683.330 99